This is the latest recevied weather packets stored in our database for station/object F4GSP-4. If no packets are shown the sender has not sent any weather packets the latest 10 day(s).
| Time | Temp. | Humidity | Pressure | Rain* | Wind** | Luminosity | Snow |
|---|---|---|---|---|---|---|---|
| 1777691205 | 3.89° C | 53% | 1035.6 hPa | - | - | - | - |
| 1777690305 | 4.44° C | 53% | 1035.6 hPa | - | - | - | - |
| 1777689404 | 4.44° C | 53% | 1035.6 hPa | - | - | - | - |
| 1777688504 | 5° C | 53% | 1035.7 hPa | - | - | - | - |
| 1777687604 | 5° C | 53% | 1035.7 hPa | - | - | - | - |
| 1777686704 | 5.56° C | 53% | 1035.7 hPa | - | - | - | - |
| 1777685804 | 5.56° C | 53% | 1035.7 hPa | - | - | - | - |
| 1777684904 | 6.11° C | 53% | 1035.7 hPa | - | - | - | - |
| 1777684004 | 6.67° C | 52% | 1035.6 hPa | - | - | - | - |
| 1777683103 | 7.22° C | 52% | 1035.6 hPa | - | - | - | - |
| 1777682203 | 7.78° C | 52% | 1035.7 hPa | - | - | - | - |
| 1777681303 | 7.78° C | 53% | 1035.8 hPa | - | - | - | - |
| 1777680403 | 8.33° C | 53% | 1035.9 hPa | - | - | - | - |
| 1777679503 | 8.33° C | 53% | 1035.8 hPa | - | - | - | - |
| 1777678602 | 8.33° C | 53% | 1035.9 hPa | - | - | - | - |
| 1777677702 | 8.33° C | 52% | 1035.8 hPa | - | - | - | - |
| 1777676802 | 8.33° C | 52% | 1035.9 hPa | - | - | - | - |
| 1777675902 | 8.89° C | 52% | 1035.8 hPa | - | - | - | - |
| 1777675002 | 9.44° C | 52% | 1035.8 hPa | - | - | - | - |
| 1777674102 | 9.44° C | 51% | 1035.7 hPa | - | - | - | - |
| 1777673202 | 10° C | 51% | 1035.6 hPa | - | - | - | - |
| 1777672300 | 10° C | 51% | 1035.5 hPa | - | - | - | - |
| 1777671400 | 10° C | 51% | 1035.5 hPa | - | - | - | - |
| 1777670500 | 10° C | 51% | 1035.4 hPa | - | - | - | - |
| 1777669600 | 10° C | 50% | 1035.2 hPa | - | - | - | - |
* Rain since midnight (hover to see other rain measurements)
** Current wind speed in m/s (hover to see current wind gust speed)